Change the Weather History Date:

Friday, March 9, 2012

  Actual Average Record
Temperature  
Mean Temperature 28 °F -  
Max Temperature 30 °F 39 °F 55 °F (1977)
Min Temperature 24 °F 17 °F -13 °F (2003)
Degree Days  
Heating Degree Days 38    
Moisture  
Dew Point 19 °F    
Average Humidity 70    
Maximum Humidity 100    
Minimum Humidity 53    
Precipitation  
Precipitation 0.00 in - - ()
Sea Level Pressure  
Sea Level Pressure 30.26 in    
Wind  
Wind Speed 12 mph (NW)    
Max Wind Speed 23 mph    
Max Gust Speed 32 mph    
Visibility 9 miles    
Events Snow    
Averages and records for this station are not official NWS values.
T = Trace of Precipitation, MM = Missing Value Source: NWS Daily Summary

Daily Weather History Graph

Daily Weather History Graph

Search for Another Location

Airport or City:

Trip Planner

Search our weather history database for the weather conditions in past years. The results will help you decide how hot, cold, wet, or windy it might be!

Date:

Astronomy

Mar. 09, 2012 Rise Set
Actual Time 7:03 AM EST 6:41 PM EST
Civil Twilight 6:35 AM EST 7:10 PM EST
Nautical Twilight 6:02 AM EST 7:43 PM EST
Astronomical Twilight 5:28 AM EST 8:17 PM EST
Moon 8:46 PM EST (3/9) 7:17 AM EST (3/9)
Length of Visible Light 12h 34m
Length of Day
11h 37m
Full, 98% of the Moon is Illuminated
Mar 9
Full
Mar 14
Last Quarter
Mar 22
New
Mar 30
First Quarter
Apr 6
Full

Hourly Weather History & Observations

Time (EST) Temp. Windchill Dew Point Humidity Pressure Visibility Wind Dir Wind Speed Gust Speed Precip Events Conditions
12:14 AM 30.7 °F 22.6 °F 28.4 °F 91% 30.03 in 1.0 mi West 9.2 mph - N/A Snow Light Snow
12:34 AM 30.0 °F 24.1 °F 30.0 °F 100% 30.02 in 1.5 mi WSW 5.8 mph - N/A Snow Light Snow
12:54 AM 29.8 °F 24.9 °F 29.8 °F 100% 30.01 in 2.5 mi SSW 4.6 mph - N/A Snow Light Snow
1:14 AM 30.2 °F - 30.2 °F 100% 30.01 in 7.0 mi Calm Calm - N/A Snow Light Snow
1:34 AM 30.9 °F 21.7 °F 28.9 °F 92% 30.02 in 7.0 mi NW 11.5 mph 17.3 mph N/A Snow Light Snow
1:54 AM 30.2 °F 21.3 °F 28.4 °F 93% 30.03 in 10.0 mi NW 10.4 mph 17.3 mph N/A   Overcast
2:14 AM 29.8 °F 20.3 °F 27.1 °F 90% 30.03 in 10.0 mi WNW 11.5 mph 17.3 mph N/A   Overcast
2:33 AM 29.3 °F 20.8 °F 26.1 °F 88% 30.04 in 10.0 mi WNW 9.2 mph - N/A   Mostly Cloudy
2:54 AM 29.5 °F 19.3 °F 25.5 °F 85% 30.04 in 10.0 mi WNW 12.7 mph - N/A   Mostly Cloudy
3:14 AM 30.2 °F 20.8 °F 24.4 °F 79% 30.04 in 10.0 mi NW 11.5 mph 18.4 mph N/A   Scattered Clouds
3:33 AM 30.2 °F 20.8 °F 24.3 °F 79% 30.05 in 10.0 mi WNW 11.5 mph - N/A   Mostly Cloudy
3:54 AM 30.2 °F 19.8 °F 24.4 °F 79% 30.06 in 10.0 mi NW 13.8 mph 23.0 mph N/A   Overcast
4:14 AM 29.8 °F 20.3 °F 24.6 °F 81% 30.07 in 10.0 mi NNW 11.5 mph - N/A Snow Light Snow
4:33 AM 29.3 °F 19.6 °F 24.8 °F 83% 30.08 in 10.0 mi North 11.5 mph 17.3 mph N/A Snow Light Snow
4:54 AM 28.8 °F 17.5 °F 24.1 °F 83% 30.09 in 10.0 mi NW 15.0 mph 20.7 mph N/A   Mostly Cloudy
5:14 AM 28.9 °F 18.2 °F 21.6 °F 74% 30.11 in 10.0 mi NW 13.8 mph 17.3 mph N/A   Scattered Clouds
5:33 AM 28.9 °F 19.2 °F 22.1 °F 76% 30.12 in 7.0 mi NW 11.5 mph - N/A Snow Light Snow
5:54 AM 28.9 °F 18.2 °F 21.2 °F 73% 30.13 in 10.0 mi NW 13.8 mph 23.0 mph N/A   Overcast
6:14 AM 28.4 °F 16.6 °F 22.1 °F 77% 30.14 in 10.0 mi WNW 16.1 mph - N/A Snow Light Snow
6:33 AM 28.4 °F 17.0 °F 21.7 °F 76% 30.15 in 10.0 mi WNW 15.0 mph 21.9 mph N/A Snow Light Snow
6:54 AM 28.4 °F 16.6 °F 21.7 °F 76% 30.16 in 10.0 mi NW 16.1 mph 21.9 mph N/A   Overcast
7:14 AM 28.2 °F 16.3 °F 21.0 °F 74% 30.17 in 7.0 mi NW 16.1 mph 19.6 mph N/A Snow Light Snow
7:34 AM 28.4 °F 18.0 °F 20.3 °F 72% 30.18 in 10.0 mi NW 12.7 mph 20.7 mph N/A   Overcast
7:54 AM 28.0 °F 15.7 °F 21.2 °F 76% 30.20 in 10.0 mi WNW 17.3 mph - N/A   Overcast
8:13 AM 26.4 °F 14.5 °F 22.1 °F 84% 30.22 in 3.0 mi NW 15.0 mph 24.2 mph N/A Snow Light Snow
8:34 AM 27.1 °F 14.9 °F 21.2 °F 78% 30.24 in 10.0 mi NW 16.1 mph 25.3 mph N/A   Overcast
8:54 AM 27.3 °F 14.0 °F 19.8 °F 73% 30.25 in 10.0 mi NNW 19.6 mph 24.2 mph N/A   Overcast
9:13 AM 26.6 °F 12.7 °F 18.9 °F 73% 30.26 in 5.0 mi NNW 20.7 mph 26.5 mph N/A Snow Light Snow
9:34 AM 27.1 °F 13.8 °F 16.7 °F 65% 30.28 in 10.0 mi NNW 19.6 mph 27.6 mph N/A   Overcast
9:54 AM 28.0 °F 13.9 °F 15.6 °F 60% 30.29 in 10.0 mi NW 23.0 mph 27.6 mph N/A   Scattered Clouds
10:14 AM 28.0 °F 16.1 °F 15.3 °F 59% 30.31 in 10.0 mi NNW 16.1 mph 27.6 mph N/A   Mostly Cloudy
10:34 AM 27.9 °F 14.7 °F 14.9 °F 58% 30.32 in 10.0 mi NNW 19.6 mph 32.2 mph N/A   Scattered Clouds
10:54 AM 27.5 °F 14.6 °F 15.1 °F 60% 30.33 in 10.0 mi NW 18.4 mph 27.6 mph N/A   Mostly Cloudy
11:13 AM 28.0 °F 15.7 °F 15.1 °F 58% 30.34 in 10.0 mi NNW 17.3 mph 28.8 mph N/A   Mostly Cloudy
11:34 AM 28.4 °F 16.2 °F 14.9 °F 57% 30.35 in 10.0 mi NNW 17.3 mph 27.6 mph N/A   Mostly Cloudy
11:54 AM 28.2 °F 14.8 °F 14.2 °F 56% 30.35 in 10.0 mi NNW 20.7 mph 26.5 mph N/A   Overcast
12:14 PM 28.9 °F 18.2 °F 15.1 °F 56% 30.36 in 10.0 mi NNW 13.8 mph 26.5 mph N/A   Overcast
12:34 PM 27.9 °F 16.3 °F 14.9 °F 58% 30.37 in 10.0 mi NW 15.0 mph 24.2 mph N/A   Overcast
12:54 PM 28.2 °F 14.5 °F 15.4 °F 59% 30.38 in 10.0 mi WNW 21.9 mph 26.5 mph N/A   Overcast
1:14 PM 29.1 °F 16.7 °F 14.4 °F 54% 30.38 in 10.0 mi WNW 18.4 mph 27.6 mph N/A   Overcast
1:33 PM 28.4 °F 16.2 °F 15.4 °F 58% 30.39 in 10.0 mi NW 17.3 mph 25.3 mph N/A   Overcast
1:54 PM 28.8 °F 17.0 °F 18.3 °F 65% 30.39 in 10.0 mi WNW 16.1 mph 27.6 mph N/A   Overcast
2:14 PM 28.2 °F 16.3 °F 17.4 °F 64% 30.40 in 10.0 mi WNW 16.1 mph 25.3 mph N/A   Overcast
2:34 PM 26.8 °F 13.7 °F 18.3 °F 70% 30.40 in 7.0 mi NW 18.4 mph 23.0 mph N/A Snow Light Snow
2:54 PM 26.6 °F 13.4 °F 16.3 °F 65% 30.41 in 10.0 mi NNW 18.4 mph 24.2 mph N/A   Overcast
3:14 PM 29.3 °F 17.7 °F 13.8 °F 53% 30.41 in 10.0 mi NW 16.1 mph 27.6 mph N/A   Overcast
3:33 PM 27.7 °F 16.6 °F 13.5 °F 55% 30.42 in 10.0 mi NW 13.8 mph 20.7 mph N/A   Overcast
3:54 PM 27.7 °F 14.5 °F 12.4 °F 53% 30.43 in 10.0 mi NW 19.6 mph 25.3 mph N/A   Scattered Clouds
4:14 PM 27.3 °F 15.2 °F 12.0 °F 53% 30.43 in 10.0 mi NW 16.1 mph 26.5 mph N/A   Mostly Cloudy
4:33 PM 26.6 °F 14.3 °F 12.0 °F 54% 30.44 in 10.0 mi NNW 16.1 mph 20.7 mph N/A   Mostly Cloudy
4:54 PM 26.4 °F 14.0 °F 12.4 °F 55% 30.44 in 10.0 mi NW 16.1 mph 21.9 mph N/A   Scattered Clouds
5:14 PM 26.6 °F 15.2 °F 11.7 °F 53% 30.45 in 10.0 mi NW 13.8 mph 20.7 mph N/A   Mostly Cloudy
5:33 PM 27.7 °F 17.1 °F 12.6 °F 53% 30.45 in 10.0 mi NW 12.7 mph 18.4 mph N/A   Overcast
5:54 PM 26.6 °F 14.7 °F 11.3 °F 53% 30.46 in 10.0 mi NW 15.0 mph 19.6 mph N/A   Overcast
6:14 PM 26.4 °F 15.5 °F 11.7 °F 54% 30.46 in 10.0 mi NW 12.7 mph 20.7 mph N/A   Overcast
6:34 PM 26.1 °F 15.0 °F 11.8 °F 55% 30.47 in 10.0 mi NW 12.7 mph - N/A   Mostly Cloudy
6:54 PM 25.5 °F 16.9 °F 12.0 °F 57% 30.47 in 10.0 mi NNW 8.1 mph - N/A   Scattered Clouds
7:14 PM 24.8 °F 17.9 °F 12.6 °F 60% 30.48 in 10.0 mi NW 5.8 mph - N/A   Clear
7:34 PM 24.1 °F 18.2 °F 13.6 °F 64% 30.48 in 10.0 mi North 4.6 mph - N/A   Clear
7:54 PM 23.7 °F 19.3 °F 13.1 °F 64% 30.48 in 10.0 mi North 3.5 mph - N/A   Clear
8:14 PM 23.5 °F - 12.9 °F 64% 30.48 in 10.0 mi Calm Calm - N/A   Clear
8:34 PM 21.2 °F - 13.6 °F 73% 30.49 in 10.0 mi Calm Calm - N/A   Clear
8:54 PM 19.2 °F - 15.3 °F 85% 30.49 in 10.0 mi Calm Calm - N/A   Clear
9:14 PM 19.4 °F - 14.4 °F 81% 30.49 in 10.0 mi Calm Calm - N/A   Clear
9:34 PM 19.2 °F - 15.6 °F 86% 30.49 in 10.0 mi Calm Calm - N/A   Clear
9:54 PM 19.6 °F - 14.7 °F 81% 30.49 in 10.0 mi Calm Calm - N/A   Clear
10:13 PM 18.7 °F - 14.9 °F 85% 30.49 in 10.0 mi Calm Calm - N/A   Clear
10:34 PM 17.8 °F - 15.3 °F 90% 30.49 in 10.0 mi Calm Calm - N/A   Clear
10:54 PM 18.1 °F - 15.3 °F 88% 30.49 in 10.0 mi Calm Calm - N/A   Scattered Clouds
11:13 PM 18.0 °F - 14.9 °F 88% 30.50 in 10.0 mi Calm Calm - N/A   Scattered Clouds
11:34 PM 17.8 °F - 14.9 °F 88% 30.50 in 10.0 mi Calm Calm - N/A   Scattered Clouds
11:54 PM 18.0 °F - 15.1 °F 88% 30.50 in 10.0 mi Calm Calm - N/A   Mostly Cloudy